{"data":{"norad_id":57244,"intl_designator":"2023-094AC","name":"STARLINK-5610","alt_names":[],"object_type":"PAYLOAD","status":"ACTIVE","operator":null,"country":"US","launch_date":"2023-07-07","launch_site_code":"AFWTR","launch_vehicle":null,"mission":null,"orbit_class":"UNKNOWN","rcs_meters":null,"size_class":null,"mass_kg":null,"dimensions":null,"purposes":["comms"],"wikipedia_slug":null,"has_3d_model":false,"image_url":null,"decayed_at":null,"tle_current":{"epoch":"2026-09-20T07:57:40.847328Z","epoch_age_seconds":138848,"freshness":"FRESH","line1":"1 57244U 23094AC  26263.33172277 -.00000144  00000+0  43011-5 0  9994","line2":"2 57244  43.0060   0.1704 0002127 283.8195  76.2420 15.27575761177010","mean_motion":15.27575761,"eccentricity":0.0002127,"inclination_deg":43.006,"raan_deg":0.1704,"arg_perigee_deg":283.8195,"mean_anomaly_deg":76.242,"bstar":4.3011e-6,"rev_number":17701,"period_min":94.267010302476,"perigee_km":481.60241217752,"apogee_km":484.52116614243,"semimajor_km":6861.19878916,"source":"CELESTRAK","updated_at":"2026-09-21T09:00:33.589668Z"}}}